Location: Matrei
(47.1333°N, 11.4500°E)
Time: 03:25:54
(UTC+00:00)

Cosmos 1933 - Pass Details

Date: 07 June 2020
Orbit: 546 x 564 km, 82.5° (Epoch: 09 July)

Event Time Altitude Azimuth Distance (km) Brightness Sun altitude
Rises 02:24:31 0° 352° (N) 2,746 7.5 -7.9°
Reaches altitude 10° 02:26:43 10° 355° (N) 1,843 6.6 -7.6°
Maximum altitude 02:30:45 71° 79° (E) 588 3.7 -7.1°
Drops below altitude 10° 02:34:45 10° 164° (SSE) 1,818 5.7 -6.7°
Sets 02:36:54 0° 167° (SSE) 2,704 6.5 -6.4°
